Location: Le Moustier
(44.1000°N, 6.5167°E)
Time: 02:45:46
(UTC+00:00)

COSMO-SKYMED 1 - Pass Details

Date: 13 December 2025
Orbit: 578 x 580 km, 97.9° (Epoch: 12 January)

Event Time Altitude Azimuth Distance (km) Brightness Sun altitude
Exits shadow 18:00:55 59° 30° (NNE) 675 2.5 -21.6°
Maximum altitude 18:01:39 80° 102° (ESE) 594 2.2 -21.7°
Drops below altitude 10° 18:05:44 10° 190° (S) 1,886 5.3 -22.4°
Sets 18:07:53 0° 192° (SSW) 2,779 6.2 -22.8°
